Wind_Speed
36 36 35 34 34 34 34 34 34 34 34 34 33 33 33 34 34 34 35 36 37 38 39 40 42 44 45 46 47 48 50 52 53 53 55 56 58 60 61 63 64 65 66
35 35 34 34 34 34 34 34 33 33 33 33 33 33 33 34 34 34 35 36 37 39 40 41 43 44 46 47 47 49 51 53 54 55 57 59 60 62 64 66 66 67 68
35 34 34 33 33 33 33 33 33 33 32 32 33 33 33 34 34 35 36 37 38 39 41 42 44 45 46 47 48 50 52 54 56 58 59 61 63 65 66 67 68 69 69
34 34 33 33 33 33 32 32 32 32 32 32 32 33 33 33 34 35 36 37 38 40 41 42 44 45 46 48 50 52 54 56 58 60 62 64 65 67 67 68 68 69 69
33 33 32 32 32 32 31 31 31 31 31 32 32 32 33 33 34 35 36 37 38 40 41 42 44 45 47 49 51 53 55 58 60 62 64 66 67 67 68 68 68 69 69
32 32 31 31 31 31 31 30 30 30 30 31 31 32 33 33 34 35 36 38 39 40 41 42 44 46 48 50 52 54 57 60 62 64 66 67 67 68 67 67 67 67 66
32 31 31 30 30 30 30 30 29 30 30 30 31 32 32 33 35 36 37 38 39 40 41 43 45 47 49 51 53 56 59 62 64 66 67 67 67 66 66 66 65 65 64
31 30 30 29 29 29 29 29 29 29 30 30 31 32 33 34 35 36 37 38 39 41 42 43 45 48 50 53 55 58 61 63 65 66 67 66 65 65 64 64 63 62 59
30 29 29 29 28 28 28 28 28 29 30 31 32 33 34 34 35 36 37 38 40 41 42 44 47 49 52 54 57 60 62 63 64 65 65 64 63 63 62 62 60 58 55
29 29 28 28 28 28 28 28 29 30 30 31 32 33 34 34 35 36 38 39 40 41 43 45 48 51 53 56 58 61 62 63 64 64 63 62 61 60 60 59 57 54 52
29 29 28 28 28 28 28 29 29 30 30 31 32 33 34 35 36 37 38 39 40 42 44 46 49 52 54 57 59 61 62 62 63 63 61 60 58 58 57 55 52 50 48
29 29 28 28 28 28 28 29 29 30 31 32 32 33 34 35 36 37 38 39 41 43 45 47 50 52 55 58 60 60 61 62 62 61 59 57 56 55 53 51 48 47 44
29 29 29 29 28 28 29 29 30 30 31 32 33 33 34 35 36 37 38 39 41 43 45 48 50 53 56 58 59 60 61 61 61 59 57 56 55 52 50 47 45 43 41
29 29 28 28 28 28 29 29 30 31 31 32 33 33 34 35 36 37 38 40 41 43 46 48 51 54 57 58 58 60 61 60 59 57 55 54 51 48 46 44 42 40 37
29 29 28 28 28 29 29 29 30 30 31 31 32 33 33 34 35 36 38 40 42 44 47 49 52 55 57 57 58 59 60 59 57 56 53 50 47 45 43 41 39 36 33
29 29 29 28 29 29 29 30 30 30 31 32 32 32 33 34 35 37 39 41 42 45 47 50 53 55 56 57 58 59 58 57 56 53 49 47 44 42 40 38 36 33 30
29 29 28 28 29 29 29 30 30 30 31 31 32 32 33 34 36 37 39 41 43 45 48 51 54 56 56 57 57 57 57 56 53 49 46 44 42 40 38 36 33 31 28
29 29 28 28 29 29 29 29 29 30 30 31 31 32 33 35 36 38 40 42 44 46 49 52 54 55 56 57 56 56 55 53 50 47 45 42 40 38 36 33 31 28 26
28 28 28 28 28 28 28 29 29 29 30 30 31 32 33 35 37 38 40 42 44 47 50 52 54 55 56 56 55 54 53 51 49 46 43 40 38 36 33 31 28 26 24
28 28 27 27 27 27 28 28 28 29 29 30 31 32 34 35 37 38 40 43 45 48 50 52 54 55 55 54 54 53 51 50 47 43 41 38 36 33 31 28 26 24 22
27 27 27 27 27 27 27 27 27 28 29 30 31 32 34 35 37 39 41 44 46 49 51 52 54 54 54 54 53 51 50 48 45 42 39 37 34 30 28 26 24 22 20
27 27 26 26 27 26 26 26 27 28 29 30 31 32 34 36 38 39 42 44 47 49 51 53 54 54 54 53 52 50 49 46 43 40 37 34 31 27 25 23 22 21 19
26 26 26 26 26 26 26 26 27 28 29 30 31 33 34 36 38 40 43 45 48 49 51 53 54 54 54 53 51 48 46 44 40 37 35 31 27 25 23 22 21 19 18
26 26 26 26 25 25 26 26 27 28 29 30 32 33 35 37 39 41 44 46 48 50 52 53 54 54 53 51 48 46 44 41 38 35 31 28 25 23 22 21 20 19 18
26 26 25 25 25 25 26 27 27 28 30 31 33 34 36 38 40 43 45 47 49 50 52 53 54 53 52 49 46 43 41 39 36 32 29 26 24 23 22 21 19 18 17
26 25 25 25 25 26 26 27 28 29 30 32 34 35 37 39 42 44 46 47 49 51 52 53 52 52 50 47 44 42 40 37 33 30 27 25 24 22 21 20 18 17 16
Wind_Direction
254 257 259 262 265 267 269 272 274 277 279 282 284 285 288 289 292 294 295 297 299 299 301 302 302 303 304 305 305 305 306 306 307 307 306 306 305 305 305 304 304 304 303
254 256 259 261 264 266 268 271 274 276 279 281 282 285 288 290 292 293 295 297 298 299 301 302 302 304 305 306 306 306 306 307 308 307 307 306 306 306 305 305 305 305 304
253 256 258 260 263 265 267 270 272 275 278 280 282 285 287 289 292 293 295 297 298 300 301 302 303 305 306 306 306 306 307 308 308 308 308 307 307 307 306 306 306 306 305
252 255 258 260 262 264 267 269 272 275 278 280 282 285 287 290 292 294 296 297 299 300 302 303 304 306 306 306 306 307 308 309 309 308 308 308 308 307 307 307 307 307 306
252 255 257 260 262 264 267 270 273 275 277 280 283 285 287 290 292 294 296 298 299 301 302 304 306 307 307 307 308 308 309 310 309 309 309 309 308 308 308 308 308 308 308
252 254 256 259 261 264 267 270 273 275 278 281 284 286 288 290 292 295 297 298 300 302 304 306 307 308 308 309 309 310 311 311 310 310 310 310 309 309 309 309 309 310 310
252 254 256 259 261 264 267 270 273 276 278 281 284 287 289 291 293 295 297 299 301 303 305 307 308 309 309 310 310 311 312 311 311 311 312 311 311 310 310 311 311 312 312
252 255 257 259 261 264 267 269 273 276 279 282 285 287 290 292 294 296 298 300 302 304 306 307 309 310 310 311 312 313 313 312 312 312 312 312 312 312 312 312 313 313 313
253 255 257 259 261 263 266 269 273 276 279 282 285 288 290 292 294 297 299 301 303 305 307 308 310 311 312 312 313 314 314 314 314 314 314 313 313 313 314 314 314 314 315
252 254 257 258 260 263 266 270 274 278 281 284 286 289 291 293 295 297 300 301 304 306 308 309 311 313 314 314 315 315 315 315 315 315 315 315 315 315 315 316 316 316 316
251 253 256 258 260 263 267 271 275 279 282 284 287 289 292 294 296 299 301 303 305 307 309 311 312 314 315 315 316 316 317 317 317 317 316 316 316 317 317 318 318 318 318
250 253 256 259 262 264 268 272 276 280 282 285 287 291 293 296 298 300 303 305 307 308 311 312 314 315 317 317 318 318 318 318 318 318 318 318 318 318 318 319 320 320 320
250 252 255 259 263 266 269 274 277 280 283 286 289 292 295 297 299 302 304 306 308 310 312 314 315 317 318 319 319 319 319 319 319 319 319 319 319 319 319 320 320 321 321
249 251 255 258 262 267 272 275 278 281 284 287 290 293 296 298 300 303 305 307 309 311 313 315 317 318 319 320 320 321 321 321 321 320 320 320 320 320 321 321 322 322 322
248 251 254 259 264 269 273 277 280 283 286 289 291 294 296 298 301 303 306 308 310 312 315 316 318 320 321 321 321 322 322 322 322 322 321 321 321 321 322 323 323 323 323
248 251 255 260 265 269 273 278 281 284 287 289 292 294 297 299 301 304 307 309 311 314 316 317 319 321 322 322 322 323 324 323 323 323 322 322 322 322 323 323 323 323 323
247 251 256 261 266 270 275 279 282 285 287 290 292 295 298 301 303 306 308 311 313 315 318 319 321 322 322 323 323 324 324 325 324 323 323 322 322 323 323 323 323 323 323
248 253 257 262 266 271 275 278 281 285 287 290 293 296 299 302 304 307 309 312 315 317 319 321 322 323 323 324 324 325 325 325 325 324 323 322 322 323 323 324 323 323 323
250 253 258 263 267 271 275 278 282 285 288 291 294 297 300 303 305 308 311 314 316 318 321 322 323 324 325 325 325 325 325 325 325 324 323 322 322 323 323 323 322 322 323
248 253 258 263 267 271 275 279 282 286 289 292 294 298 301 304 306 309 312 315 318 320 322 323 324 325 325 325 325 325 325 325 324 323 323 323 323 323 322 322 322 322 322
248 253 258 263 267 271 275 279 283 287 290 293 296 299 302 305 308 311 314 316 319 320 322 324 325 325 325 325 325 325 325 325 324 323 323 323 322 322 322 322 322 322 322
249 255 259 263 267 271 275 280 284 288 291 294 297 300 304 306 309 312 315 317 319 321 323 324 326 326 325 325 324 324 325 325 324 323 323 323 322 322 322 323 323 323 322
251 255 259 264 268 272 277 281 285 289 292 295 298 302 305 308 311 313 316 318 320 322 323 325 326 326 325 324 324 324 324 324 323 322 322 322 321 321 321 321 322 321 321
251 255 259 263 268 273 278 282 286 289 292 296 300 303 306 309 312 314 317 319 320 322 324 325 326 326 325 325 324 324 324 324 323 322 322 321 320 319 319 319 319 319 320
252 256 259 264 269 274 279 283 287 290 294 298 301 304 307 310 313 315 317 319 320 322 324 325 326 326 326 325 324 324 324 324 323 321 321 320 319 319 319 318 317 316 316
252 257 261 266 271 276 280 284 288 292 296 299 303 306 308 311 313 316 318 320 321 323 324 325 326 326 326 324 323 323 323 323 322 320 319 318 318 318 318 318 316 314 314
Height
5735 5736 5737 5738 5738 5738 5738 5738 5737 5736 5735 5733 5732 5730 5727 5725 5722 5719 5715 5712 5708 5704 5699 5695 5690 5684 5679 5673 5666 5660 5654 5647 5641 5635 5627 5619 5611 5603 5595 5587 5579 5570 5562
5726 5728 5729 5730 5730 5730 5730 5730 5729 5728 5727 5726 5724 5722 5720 5717 5714 5711 5707 5704 5700 5696 5691 5686 5681 5675 5669 5663 5657 5650 5643 5636 5629 5623 5615 5606 5598 5589 5580 5571 5562 5553 5545
5718 5719 5720 5721 5722 5722 5722 5722 5721 5720 5719 5718 5716 5714 5712 5709 5706 5703 5699 5696 5691 5687 5682 5677 5672 5666 5660 5653 5647 5640 5633 5625 5617 5610 5602 5593 5584 5574 5565 5556 5546 5536 5527
5709 5711 5712 5713 5714 5714 5714 5714 5713 5712 5711 5710 5708 5706 5704 5701 5698 5695 5691 5687 5683 5678 5673 5668 5662 5656 5650 5643 5636 5629 5622 5614 5605 5597 5588 5579 5569 5558 5548 5539 5530 5519 5510
5700 5702 5703 5705 5705 5706 5706 5706 5705 5704 5703 5702 5700 5698 5696 5693 5690 5686 5683 5679 5674 5669 5664 5659 5653 5646 5640 5633 5626 5618 5610 5602 5593 5583 5574 5564 5554 5543 5533 5523 5513 5503 5493
5692 5694 5695 5696 5697 5697 5698 5697 5697 5696 5695 5694 5692 5690 5688 5685 5682 5678 5674 5670 5665 5660 5655 5649 5643 5637 5630 5623 5615 5607 5598 5589 5579 5570 5559 5549 5538 5527 5517 5506 5496 5487 5478
5684 5685 5687 5688 5689 5690 5690 5690 5689 5689 5688 5686 5684 5682 5680 5677 5673 5670 5665 5661 5656 5651 5646 5640 5634 5627 5620 5612 5604 5596 5586 5575 5565 5555 5544 5533 5522 5512 5502 5492 5481 5470 5461
5675 5677 5679 5680 5681 5682 5682 5682 5682 5681 5680 5678 5676 5674 5671 5668 5665 5661 5657 5652 5647 5642 5637 5631 5624 5617 5609 5602 5593 5584 5574 5563 5553 5541 5530 5519 5507 5496 5486 5476 5466 5457 5447
5668 5670 5671 5673 5674 5674 5674 5674 5674 5673 5672 5670 5668 5666 5663 5660 5656 5652 5648 5643 5638 5633 5627 5621 5614 5607 5599 5591 5582 5572 5562 5550 5539 5527 5516 5504 5493 5482 5472 5462 5452 5443 5435
5660 5662 5663 5665 5666 5666 5666 5666 5666 5665 5663 5662 5660 5657 5654 5651 5647 5643 5639 5635 5630 5624 5618 5612 5605 5597 5588 5578 5569 5559 5548 5537 5526 5515 5503 5492 5481 5470 5460 5450 5440 5431 5423
5652 5654 5656 5657 5658 5658 5658 5658 5658 5657 5655 5654 5651 5649 5645 5642 5639 5635 5630 5626 5620 5615 5608 5602 5594 5586 5577 5567 5557 5546 5535 5524 5513 5502 5491 5480 5470 5459 5449 5439 5430 5421 5413
5645 5647 5648 5649 5650 5650 5651 5650 5649 5648 5647 5645 5643 5640 5637 5634 5630 5626 5621 5617 5611 5605 5599 5592 5584 5575 5566 5556 5545 5534 5523 5512 5501 5490 5479 5469 5459 5449 5439 5429 5421 5412 5404
5637 5639 5641 5642 5642 5643 5643 5642 5641 5640 5639 5637 5634 5632 5628 5625 5621 5617 5612 5607 5602 5596 5589 5582 5574 5565 5555 5545 5534 5523 5512 5500 5489 5478 5468 5458 5448 5439 5429 5421 5412 5405 5397
5630 5632 5633 5634 5635 5635 5635 5634 5633 5632 5630 5628 5626 5623 5620 5616 5613 5608 5604 5598 5593 5587 5580 5572 5564 5555 5545 5534 5523 5512 5501 5489 5478 5468 5457 5448 5438 5429 5421 5413 5405 5398 5391
5622 5624 5625 5626 5627 5627 5627 5626 5625 5624 5622 5620 5617 5614 5611 5608 5604 5600 5595 5590 5584 5577 5570 5562 5554 5544 5534 5523 5512 5502 5490 5479 5468 5458 5448 5438 5429 5421 5413 5405 5398 5392 5385
5614 5616 5618 5619 5619 5619 5619 5618 5617 5615 5613 5611 5609 5606 5603 5600 5595 5591 5586 5581 5575 5568 5561 5552 5544 5534 5523 5513 5502 5491 5480 5469 5459 5448 5439 5430 5422 5414 5406 5399 5393 5386 5380
5607 5608 5610 5611 5611 5611 5611 5610 5609 5607 5605 5603 5601 5598 5595 5591 5587 5583 5578 5572 5565 5559 5551 5542 5533 5523 5513 5503 5492 5481 5471 5460 5450 5440 5431 5423 5415 5407 5400 5394 5387 5381 5376
5599 5601 5602 5603 5603 5603 5603 5602 5601 5599 5597 5595 5592 5589 5586 5583 5579 5574 5569 5563 5556 5549 5541 5533 5523 5513 5503 5493 5482 5472 5462 5451 5442 5432 5424 5416 5408 5401 5395 5389 5382 5377 5372
5591 5593 5594 5595 5595 5595 5594 5593 5592 5591 5589 5587 5584 5581 5578 5574 5570 5565 5559 5554 5547 5540 5532 5523 5513 5503 5493 5483 5473 5463 5453 5443 5434 5425 5417 5409 5402 5396 5389 5383 5378 5373 5368
5583 5585 5586 5587 5587 5587 5586 5585 5584 5583 5581 5579 5576 5573 5569 5565 5561 5556 5550 5544 5538 5530 5522 5513 5503 5494 5484 5474 5464 5454 5444 5435 5426 5418 5410 5403 5396 5390 5384 5379 5374 5369 5365
5575 5577 5578 5578 5579 5579 5578 5577 5576 5574 5572 5570 5567 5564 5561 5557 5552 5547 5541 5535 5528 5520 5512 5503 5494 5484 5474 5464 5455 5445 5436 5427 5418 5411 5403 5397 5390 5384 5379 5374 5370 5366 5362
5567 5569 5570 5571 5571 5571 5570 5569 5568 5566 5564 5562 5559 5556 5552 5548 5543 5538 5532 5525 5518 5511 5502 5493 5484 5474 5465 5455 5445 5436 5427 5419 5411 5404 5397 5391 5385 5380 5375 5371 5366 5363 5359
5559 5561 5562 5563 5563 5563 5562 5561 5559 5558 5556 5553 5550 5547 5543 5539 5534 5529 5523 5516 5509 5501 5492 5483 5474 5464 5455 5445 5436 5427 5419 5411 5403 5397 5390 5385 5380 5375 5371 5367 5363 5360 5356
5552 5553 5554 5555 5555 5554 5554 5553 5551 5549 5547 5545 5542 5538 5534 5530 5525 5519 5513 5506 5499 5491 5482 5473 5464 5454 5445 5436 5427 5419 5411 5403 5396 5390 5384 5379 5375 5371 5367 5363 5360 5356 5353
5544 5545 5546 5546 5546 5546 5545 5544 5543 5541 5539 5536 5533 5529 5525 5521 5515 5509 5503 5496 5489 5481 5472 5463 5454 5445 5436 5427 5419 5411 5404 5397 5390 5384 5379 5375 5371 5367 5363 5359 5356 5353 5350
5536 5537 5538 5538 5538 5538 5537 5536 5534 5532 5530 5527 5524 5520 5516 5511 5506 5500 5493 5486 5479 5471 5462 5453 5444 5435 5427 5418 5411 5403 5396 5390 5384 5379 5374 5370 5366 5362 5359 5356 5353 5350 5347